Terminal Aerodrome Forecast
Issued by NWS Chicago, IL

Home | Current Version | Previous Version | Graphics & Text | Print | Product List | Glossary On
Versions: 1 2 3 4 5 6 7 8 9 10 11 12 13 14 15 16 17 18 19 20 21 22 23 24 25 26 27 28
968
FTUS43 KLOT 181138
TAFRFD
TAF
KRFD 181138Z 1812/1912 25009KT 3SM BR OVC004
      TEMPO 1812/1815 2SM BR
     FM181500 22010KT 6SM BR SCT004 OVC006
     FM181900 21012KT P6SM FEW007 SCT010
     FM182100 21012G17KT P6SM SCT015 SCT250
     FM190000 20006KT P6SM FEW010 SCT250
     FM190900 18005KT 5SM BR FEW007 SCT250=

USA.gov is the U.S. government's official web portal to all federal, state and local government web resources and services.